Location: Buckland
(65.9785°N, 161.1281°W)
Time: 17:48:06
(UTC+00:00)

Vanguard 2 Rocket - Pass Details

Date: 03 December 2020
Orbit: 554 x 3326 km, 32.9° (Epoch: 14 January)

Event Time Altitude Azimuth Distance (km) Brightness Sun altitude
Rises 17:16:11 0° 204° (SSW) 7,024 11.4 -16.1°
Reaches altitude 10° 17:24:08 10° 185° (S) 6,240 11.3 -15.4°
Maximum altitude 17:33:04 15° 159° (SSE) 5,824 11.6 -14.5°
Drops below altitude 10° 17:41:42 10° 132° (SE) 6,030 12.3 -13.7°
Sets 17:49:02 0° 113° (ESE) 6,663 13.4 -13.0°
